Torna al catalogo

SL-8 R/B

AttivoPO
NORAD 20775·ROCKET BODY·🇷🇺 Russia

Lanciato Aug 28, 1990 da Plesetsk Cosmodrome

Loading…

Prossimi Passaggi (prossime 24 ore)

TLE

AggiornatoSource: Space-Track

Epoca: Sep 14, 2026, 22:56 UTC

1 20775U 90078B   26257.95589097  .00015934  00000-0  43337-3 0  9994
2 20775  82.8970  80.3264 0341661  93.8792 270.1557 14.94948329837524

Traccia SL-8 R/B in tempo reale con AllMySat

Download on the App Store